[[{"header":{"parameterUnit":"m.s-1","parameterCategory":1,"la1":30.2991,"la2":30.254,"lo1":-89.0895,"lo2":-89.0444,"dy":0.0017,"dx":0.0017,"nx":28,"ny":28,"refTime":"2025-07-06T09:00:00:Z","depth":0,"parameterNumber":2,"parameterNumberName":"U-component_of_WINDS"},"data":[0,0,0,0,0,0,0,0,0,0,0,0,0,0,0,0,0,0,0,0,0,0,0,0,0,0,0,0,0,0,0,0,0,0,0,0,0,0,0,0,0,0,0,0,0,0,0,0,0,0,0,0,0,0,0,0,0,0,-1.8688,-1.8687,0,-1.8619,-1.8618,-1.8617,-1.8552,-1.8551,-1.855,-1.8549,-1.8476,-1.8475,-1.8474,0,0,0,0,0,0,0,0,0,0,0,0,0,-1.8763,-1.8761,-1.8688,-1.8687,-1.8686,-1.8619,-1.8618,-1.8617,-1.8552,-1.8551,-1.855,-1.8549,-1.8476,-1.8475,-1.8474,0,0,0,0,0,0,0,0,0,0,0,0,0,-1.8715,-1.8761,-1.8688,-1.8646,-1.8641,-1.8619,-1.8618,-1.8617,-1.8552,-1.8551,-1.855,-1.8549,-1.8477,-1.8475,-1.8473,-1.8487,0,0,-1.8468,-1.8467,0,0,0,0,0,0,0,0,-1.8718,-1.8713,-1.8653,-1.8648,-1.8643,-1.8593,-1.8617,-1.8573,-1.8552,-1.8586,-1.8549,-1.8548,-1.8516,-1.8511,-1.85,-1.8483,-1.848,-1.8468,-1.8467,-1.8466,-1.8465,0,0,0,0,0,0,0,-1.8722,-1.8715,-1.866,-1.8652,-1.8646,-1.863,-1.8622,-1.8609,-1.8558,-1.8583,-1.8578,-1.8571,-1.8513,-1.8502,-1.8498,-1.8479,-1.8468,-1.8466,-1.8465,-1.8464,-1.8471,-1.8472,0,0,0,0,0,0,-1.8732,-1.8718,-1.8663,-1.8658,-1.8679,-1.863,-1.862,-1.861,-1.8558,-1.8549,-1.8572,-1.8568,-1.8506,-1.85,-1.8495,-1.8507,-1.8466,-1.8464,-1.8463,-1.847,-1.8471,-1.8473,0,0,0,0,0,0,-1.8733,-1.8727,-1.8665,-1.8687,-1.8678,-1.863,-1.8618,-1.8609,-1.8599,-1.855,-1.8541,-1.857,-1.8505,-1.8498,-1.849,-1.8504,-1.8463,-1.8462,-1.8468,-1.847,-1.8472,-1.8532,0,0,0,0,0,0,-1.8736,-1.8728,-1.8733,-1.8688,-1.8677,-1.8661,-1.8619,-1.8609,-1.8596,-1.859,-1.8546,-1.8537,-1.8503,-1.8493,-1.8488,-1.8501,-1.846,-1.8467,-1.8469,-1.8471,-1.8529,-1.8536,-1.8542,0,0,0,0,0,-1.8739,-1.8751,-1.8733,-1.8727,-1.8682,-1.8662,-1.8656,-1.8617,-1.8597,-1.8601,-1.8571,-1.8539,-1.8504,-1.8493,-1.8487,-1.8499,-1.8465,-1.8468,-1.8471,-1.8525,-1.8534,-1.8542,0,0,0,0,0,0,-1.8797,-1.8745,-1.8724,-1.8722,-1.8698,-1.8651,-1.8655,-1.8628,-1.8607,-1.8602,-1.8554,-1.8545,-1.8542,-1.852,-1.8508,-1.851,-1.848,-1.8482,-1.8524,-1.8532,-1.8539,-1.8543,-1.8459,0,0,0,0,0,-1.8811,-1.88,-1.8754,-1.8757,-1.8746,-1.8703,-1.8693,-1.8666,-1.8638,-1.8626,-1.8595,-1.8568,-1.8551,-1.8541,-1.8522,-1.8526,-1.8516,-1.8532,-1.8539,-1.8545,-1.8546,-1.8547,-1.8554,-1.8482,-1.8482,-1.8482,0,0,-1.8837,-1.8807,-1.8802,-1.8769,-1.8746,-1.8736,-1.8694,-1.8685,-1.8676,-1.8624,-1.8615,-1.8592,-1.8559,-1.8557,-1.8555,-1.8538,-1.8564,-1.8548,-1.8553,-1.8551,-1.855,-1.8557,-1.8563,-1.8484,-1.8483,-1.8483,0,0,-1.8879,-1.8856,-1.8856,-1.8835,-1.8802,-1.8774,-1.8775,-1.8733,-1.8716,-1.8706,-1.8668,-1.8657,-1.8629,-1.8607,-1.8593,-1.8631,-1.8601,-1.8627,-1.8661,-1.8662,-1.8668,-1.8673,-1.8685,-1.8691,-1.8629,-1.8629,-1.8629,0,-1.8915,-1.8898,-1.886,-1.8853,-1.8839,-1.8794,-1.8794,-1.8776,-1.8738,-1.873,-1.8713,-1.8678,-1.8652,-1.8645,-1.8655,-1.8645,-1.8644,-1.863,-1.867,-1.8675,-1.8679,-1.869,-1.8695,-1.8632,-1.8632,-1.8631,-1.8631,0,-1.8945,-1.8934,-1.8938,-1.8905,-1.8892,-1.8889,-1.8849,-1.8841,-1.8816,-1.879,-1.8782,-1.8751,-1.8725,-1.8722,-1.8697,-1.8712,-1.8703,-1.868,-1.8648,-1.8689,-1.8699,-1.8704,-1.8637,-1.8636,-1.8635,-1.8634,0,0,-1.9018,-1.8966,-1.8968,-1.8953,-1.8915,-1.8905,-1.8901,-1.8878,-1.8872,-1.8849,-1.8843,-1.8823,-1.8801,-1.8784,-1.8757,-1.8759,-1.8791,-1.8734,-1.8733,-1.8745,-1.8805,-1.8822,-1.8828,-1.8772,-1.8773,-1.8773,-1.8808,0,-1.9053,-1.9042,-1.9008,-1.9007,-1.8997,-1.8956,-1.8952,-1.8929,-1.8905,-1.8893,-1.8867,-1.8852,-1.8825,-1.8815,-1.8816,-1.8787,-1.8802,-1.8784,-1.8765,-1.8765,-1.8773,-1.8834,-1.8851,-1.8885,-1.8812,-1.8812,-1.8813,0,-1.909,-1.9071,-1.907,-1.9034,-1.9029,-1.9026,-1.9003,-1.8992,-1.8965,-1.8948,-1.8932,-1.8902,-1.8895,-1.8869,-1.8859,-1.8848,-1.8839,-1.8824,-1.8825,-1.8819,-1.879,-1.8828,-1.8894,-1.8899,-1.8819,-1.8818,-1.8818,0,-1.9143,-1.9117,-1.9113,-1.9102,-1.906,-1.9059,-1.9042,-1.9014,-1.9003,-1.8984,-1.8976,-1.8956,-1.8944,-1.8929,-1.8895,-1.8879,-1.8889,-1.886,-1.8874,-1.8875,-1.8875,-1.8875,-1.8939,-1.8873,-1.8873,-1.8873,-1.8873,0,-1.9183,-1.9184,-1.9136,-1.9134,-1.9134,-1.9096,-1.9097,-1.9076,-1.9052,-1.9044,-1.9009,-1.9002,-1.8958,-1.8947,-1.8921,-1.8917,-1.8912,-1.8897,-1.889,-1.8899,-1.8901,-1.8891,-1.8887,-1.8874,-1.8874,-1.8874,-1.8874,0,-1.924,-1.9209,-1.9202,-1.9164,-1.9155,-1.9157,-1.9124,-1.912,-1.9096,-1.9088,-1.9083,-1.9045,-1.903,-1.8996,-1.8972,-1.8954,-1.8956,-1.8944,-1.8965,-1.896,-1.8976,-1.8974,-1.9034,-1.9039,-1.8972,-1.8973,-1.8973,0,-1.9267,-1.9267,-1.923,-1.9224,-1.9208,-1.9197,-1.9186,-1.915,-1.9141,-1.9112,-1.9112,-1.9095,-1.9079,-1.9057,-1.9027,-1.9009,-1.8995,-1.9017,-1.8991,-1.9001,-1.8993,-1.8993,-1.8993,-1.9022,-1.9023,-1.9023,-1.9024,0,-1.9318,-1.9303,-1.929,-1.9271,-1.926,-1.9243,-1.9225,-1.9221,-1.9181,-1.9172,-1.9157,-1.9145,-1.9122,-1.9105,-1.9083,-1.9065,-1.9038,-1.9033,-1.9035,-1.9043,-1.9055,-1.9048,-1.8978,-1.9031,-1.903,-1.903,-1.9029,-1.9029,-1.936,-1.9358,-1.9333,-1.9319,-1.9302,-1.9286,-1.9281,-1.9257,-1.9245,-1.9223,-1.9203,-1.9191,-1.9166,-1.9134,-1.9118,-1.9108,-1.9093,-1.9097,-1.9097,-1.9098,-1.9102,-1.906,-1.9104,-1.9103,-1.9103,-1.9103,-1.9103,0,-1.9408,-1.939,-1.9378,-1.9354,-1.9344,-1.9322,-1.9301,-1.9294,-1.9283,-1.9263,-1.9249,-1.9233,-1.9218,-1.9188,-1.917,-1.9167,-1.9154,-1.9164,-1.9162,-1.9159,-1.9116,-1.9115,-1.9174,-1.9174,-1.9174,-1.9174,-1.9174,-1.9174,-1.9432,-1.9427,-1.941,-1.9398,-1.938,-1.9368,-1.9358,-1.9343,-1.9327,-1.9311,-1.9299,-1.928,-1.9256,-1.9237,-1.9222,-1.9213,-1.9208,-1.9221,-1.9208,-1.9168,-1.9161,-1.9155,-1.9154,-1.922,-1.922,-1.9251,-1.9252,-1.9252]},{"header":{"parameterUnit":"m.s-1","parameterCategory":1,"la1":30.2991,"la2":30.254,"lo1":-89.0895,"lo2":-89.0444,"dy":0.0017,"dx":0.0017,"nx":28,"ny":28,"refTime":"2025-07-06T09:00:00:Z","depth":0,"parameterNumber":3,"parameterNumberName":"V-component_of_WINDS"},"data":[0,0,0,0,0,0,0,0,0,0,0,0,0,0,0,0,0,0,0,0,0,0,0,0,0,0,0,0,0,0,0,0,0,0,0,0,0,0,0,0,0,0,0,0,0,0,0,0,0,0,0,0,0,0,0,0,0,0,5.3029,5.3029,0,5.3016,5.3016,5.3016,5.3007,5.3007,5.3007,5.3007,5.2991,5.299,5.299,0,0,0,0,0,0,0,0,0,0,0,0,0,5.3043,5.3043,5.3029,5.3029,5.3028,5.3016,5.3016,5.3016,5.3007,5.3007,5.3007,5.3007,5.2991,5.299,5.299,0,0,0,0,0,0,0,0,0,0,0,0,0,5.3034,5.3043,5.3029,5.3023,5.3022,5.3016,5.3016,5.3016,5.3007,5.3007,5.3007,5.3007,5.2991,5.299,5.299,5.2988,0,0,5.2988,5.2988,0,0,0,0,0,0,0,0,5.3035,5.3034,5.3024,5.3023,5.3022,5.3013,5.3015,5.3006,5.3007,5.3012,5.3007,5.3007,5.2998,5.2997,5.2994,5.2987,5.2987,5.2988,5.2988,5.2987,5.2987,0,0,0,0,0,0,0,5.3036,5.3034,5.3024,5.3023,5.3023,5.302,5.3018,5.3013,5.3006,5.3012,5.3011,5.301,5.2997,5.2995,5.2994,5.2986,5.2988,5.2988,5.2987,5.2987,5.2978,5.2978,0,0,0,0,0,0,5.3037,5.3035,5.3024,5.3023,5.3029,5.302,5.3018,5.3016,5.3006,5.3004,5.301,5.301,5.2996,5.2995,5.2993,5.2991,5.2987,5.2987,5.2987,5.2978,5.2978,5.2978,0,0,0,0,0,0,5.3038,5.3037,5.3024,5.3029,5.3027,5.3019,5.3017,5.3016,5.3013,5.3004,5.3003,5.3009,5.2996,5.2994,5.299,5.2991,5.2987,5.2986,5.2978,5.2978,5.2978,5.2987,0,0,0,0,0,0,5.3038,5.3037,5.3036,5.3029,5.3027,5.3022,5.3017,5.3016,5.3013,5.3012,5.3003,5.3002,5.2996,5.2991,5.2989,5.299,5.2986,5.2978,5.2978,5.2978,5.2986,5.2987,5.2988,0,0,0,0,0,5.3039,5.3038,5.3036,5.3035,5.3027,5.3022,5.3021,5.3015,5.3013,5.3012,5.3007,5.3002,5.2991,5.299,5.2989,5.2989,5.2978,5.2978,5.2978,5.2986,5.2987,5.2988,0,0,0,0,0,0,5.3045,5.3037,5.3035,5.3032,5.3028,5.302,5.3019,5.3016,5.3011,5.301,5.3003,5.3001,5.2997,5.2993,5.2992,5.2987,5.2984,5.2984,5.299,5.2991,5.2992,5.2993,5.2985,0,0,0,0,0,5.3046,5.3044,5.3037,5.3035,5.3033,5.3027,5.3024,5.3021,5.3015,5.3013,5.3007,5.3002,5.2997,5.2994,5.2989,5.2986,5.2984,5.2985,5.2986,5.2987,5.2987,5.2985,5.2986,5.2979,5.2979,5.2979,0,0,5.3048,5.3044,5.3042,5.3036,5.3032,5.303,5.3025,5.3022,5.302,5.3012,5.3008,5.3004,5.2997,5.2994,5.2992,5.299,5.2988,5.2987,5.2988,5.2987,5.2986,5.2986,5.2987,5.2979,5.2979,5.2979,0,0,5.305,5.3047,5.3045,5.3042,5.3037,5.3033,5.3033,5.3026,5.3023,5.3019,5.3014,5.3011,5.3003,5.2998,5.2995,5.2998,5.2993,5.2996,5.3,5.2999,5.2999,5.2999,5.3,5.3001,5.2996,5.2996,5.2996,0,5.3053,5.3049,5.3045,5.3042,5.304,5.3035,5.3033,5.303,5.3023,5.3021,5.3019,5.301,5.3005,5.3001,5.3002,5.2999,5.2998,5.2997,5.3,5.3,5.3,5.3001,5.3001,5.2997,5.2997,5.2997,5.2996,0,5.3053,5.3051,5.305,5.3045,5.3043,5.304,5.3035,5.3033,5.303,5.3026,5.3022,5.3017,5.3011,5.301,5.3006,5.3005,5.3004,5.3001,5.2997,5.3001,5.3002,5.3002,5.2997,5.2997,5.2997,5.2997,0,0,5.3058,5.3051,5.3051,5.3049,5.3043,5.3041,5.3039,5.3035,5.3033,5.3029,5.3027,5.3021,5.3019,5.3015,5.3011,5.301,5.3013,5.3007,5.3007,5.3008,5.3012,5.3014,5.3014,5.301,5.301,5.301,5.3012,0,5.3059,5.3056,5.3052,5.305,5.3047,5.3043,5.3041,5.3038,5.3034,5.3031,5.3027,5.3024,5.3021,5.3018,5.3017,5.3013,5.3013,5.3012,5.3007,5.3007,5.3009,5.3015,5.3016,5.3019,5.3012,5.3013,5.3013,0,5.306,5.3057,5.3055,5.3051,5.3049,5.3048,5.3044,5.3042,5.3037,5.3035,5.3032,5.3028,5.3025,5.3023,5.3019,5.3019,5.3016,5.3014,5.3014,5.3013,5.301,5.3013,5.3019,5.302,5.3013,5.3013,5.3013,0,5.3063,5.3059,5.3057,5.3056,5.305,5.305,5.3047,5.3043,5.3041,5.3038,5.3036,5.3032,5.303,5.3027,5.3022,5.302,5.3019,5.3015,5.3016,5.3016,5.3015,5.3015,5.3021,5.3015,5.3015,5.3015,5.3015,0,5.3065,5.3063,5.3059,5.3058,5.3057,5.3053,5.3051,5.3048,5.3045,5.3043,5.3039,5.3037,5.3031,5.3028,5.3024,5.3022,5.3021,5.3018,5.3017,5.3018,5.3019,5.3016,5.3016,5.3015,5.3015,5.3015,5.3015,0,5.3068,5.3065,5.3063,5.3059,5.3058,5.3057,5.3053,5.3052,5.3049,5.3046,5.3046,5.3041,5.3037,5.3033,5.3028,5.3025,5.3023,5.3021,5.3025,5.3024,5.3025,5.3025,5.3029,5.3029,5.3023,5.3023,5.3023,0,5.3069,5.3068,5.3064,5.3063,5.3062,5.306,5.3058,5.3054,5.3052,5.3048,5.3048,5.3044,5.3042,5.3037,5.3032,5.3029,5.3027,5.3028,5.3026,5.3027,5.3026,5.3026,5.3026,5.3029,5.3029,5.3029,5.3029,0,5.3071,5.307,5.3068,5.3066,5.3064,5.3062,5.306,5.3059,5.3055,5.3053,5.305,5.3048,5.3044,5.3041,5.3037,5.3034,5.3031,5.303,5.303,5.3031,5.3033,5.3032,5.3026,5.3029,5.3029,5.3029,5.3029,5.3029,5.3073,5.3073,5.307,5.3068,5.3066,5.3065,5.3063,5.3061,5.3059,5.3056,5.3054,5.3051,5.3048,5.3042,5.304,5.3037,5.3036,5.3036,5.3036,5.3036,5.3036,5.3034,5.3037,5.3037,5.3037,5.3037,5.3037,0,5.3075,5.3074,5.3072,5.307,5.3068,5.3067,5.3064,5.3063,5.3061,5.3058,5.3056,5.3054,5.3051,5.3047,5.3044,5.3043,5.3041,5.3042,5.3042,5.3041,5.3038,5.3038,5.3043,5.3043,5.3043,5.3043,5.3043,5.3043,5.3076,5.3075,5.3073,5.3072,5.307,5.3068,5.3067,5.3065,5.3063,5.3061,5.3059,5.3057,5.3054,5.305,5.3048,5.3047,5.3046,5.3047,5.3045,5.3042,5.3041,5.3041,5.3041,5.3047,5.3047,5.3049,5.3049,5.3049]}]]